Great Bend, KS

5:26 PM CDT on May 22, 2017 (GMT -0500)
Great Bend Municipal

Weather History for KGBD - February, 2014

Change the Weather History Date:

Monday, February 3, 2014

  Actual Average Record
Temperature  
Mean Temperature 22 °F -  
Max Temperature 32 °F 43 °F 34 °F (2017)
Min Temperature 12 °F 21 °F 12 °F (2014)
Degree Days  
Heating Degree Days 43    
Moisture  
Dew Point 11 °F    
Average Humidity 59    
Maximum Humidity 75    
Minimum Humidity 40    
Precipitation  
Precipitation 0.00 in - - ()
Sea Level Pressure  
Sea Level Pressure 30.11 in    
Wind  
Wind Speed 9 mph (SSE)    
Max Wind Speed 21 mph    
Max Gust Speed 24 mph    
Visibility 10 miles    
Events      
Averages and records for this station are not official NWS values.
T = Trace of Precipitation, MM = Missing Value Source: NWS Daily Summary

Daily Weather History Graph

Daily Weather History Graph

Search for Another Location

Airport or City:

Trip Planner

Search our weather history database for the weather conditions in past years. The results will help you decide how hot, cold, wet, or windy it might be!

Date:

Astronomy

Feb. 03, 2014 Rise Set
Actual Time 7:38 AM CST 6:00 PM CST
Civil Twilight 7:10 AM CST 6:28 PM CST
Nautical Twilight 6:39 AM CST 6:59 PM CST
Astronomical Twilight 6:08 AM CST 7:30 PM CST
Moon 9:46 AM CST (2/3) 10:47 PM CST (2/3)
Length of Visible Light 11h 17m
Length of Day
10h 21m
Waxing Crescent, 20% of the Moon is Illuminated
Feb 3
Waxing Crescent
Feb 6
First Quarter
Feb 14
Full
Feb 22
Last Quarter
Mar 1
New

Hourly Weather History & Observations

Time (CST) Temp. Windchill Dew Point Humidity Pressure Visibility Wind Dir Wind Speed Gust Speed Precip Events Conditions
12:15 AM 15.8 °F 7.2 °F 6.8 °F 68% 30.23 in 10.0 mi South 5.8 mph - N/A   Clear
12:35 AM 15.8 °F 7.2 °F 6.8 °F 68% 30.22 in 10.0 mi South 5.8 mph - N/A   Clear
12:55 AM 15.8 °F 8.6 °F 6.8 °F 68% 30.22 in 10.0 mi South 4.6 mph - N/A   Clear
1:15 AM 15.8 °F 5.1 °F 6.8 °F 68% 30.21 in 10.0 mi South 8.1 mph - N/A   Clear
1:35 AM 15.8 °F 5.1 °F 6.8 °F 68% 30.20 in 10.0 mi South 8.1 mph - N/A   Clear
1:55 AM 15.8 °F 4.2 °F 6.8 °F 68% 30.19 in 10.0 mi South 9.2 mph - N/A   Clear
2:15 AM 15.8 °F 4.2 °F 6.8 °F 68% 30.19 in 10.0 mi South 9.2 mph - N/A   Clear
2:35 AM 14.0 °F 3.9 °F 6.8 °F 73% 30.19 in 10.0 mi South 6.9 mph - N/A   Clear
2:55 AM 14.0 °F 6.5 °F 6.8 °F 73% 30.18 in 10.0 mi South 4.6 mph - N/A   Clear
3:15 AM 14.0 °F 5.1 °F 6.8 °F 73% 30.18 in 10.0 mi South 5.8 mph - N/A   Clear
3:35 AM 14.0 °F 2.0 °F 6.8 °F 73% 30.18 in 10.0 mi South 9.2 mph - N/A   Clear
3:55 AM 15.8 °F 4.2 °F 6.8 °F 68% 30.16 in 10.0 mi South 9.2 mph - N/A   Clear
4:15 AM 14.0 °F 2.9 °F 6.8 °F 73% 30.16 in 10.0 mi South 8.1 mph - N/A   Clear
4:35 AM 14.0 °F 3.9 °F 6.8 °F 73% 30.16 in 10.0 mi South 6.9 mph - N/A   Clear
4:55 AM 14.0 °F 5.1 °F 6.8 °F 73% 30.17 in 10.0 mi South 5.8 mph - N/A   Clear
5:15 AM 12.2 °F 4.3 °F 5.0 °F 73% 30.17 in 10.0 mi South 4.6 mph - N/A   Clear
5:35 AM 12.2 °F 2.9 °F 5.0 °F 73% 30.16 in 10.0 mi SSE 5.8 mph - N/A   Clear
5:55 AM 12.2 °F 1.7 °F 5.0 °F 73% 30.16 in 10.0 mi South 6.9 mph - N/A   Clear
6:15 AM 14.0 °F 5.1 °F 6.8 °F 73% 30.16 in 10.0 mi South 5.8 mph - N/A   Clear
6:35 AM 15.8 °F 4.2 °F 6.8 °F 68% 30.16 in 10.0 mi South 9.2 mph - N/A   Clear
6:55 AM 15.8 °F 3.4 °F 6.8 °F 68% 30.16 in 10.0 mi South 10.4 mph - N/A   Clear
7:15 AM 15.8 °F 5.1 °F 6.8 °F 68% 30.16 in 10.0 mi South 8.1 mph - N/A   Clear
7:35 AM 15.8 °F 4.2 °F 8.6 °F 73% 30.16 in 10.0 mi South 9.2 mph - N/A   Clear
7:55 AM 15.8 °F 6.1 °F 8.6 °F 73% 30.16 in 10.0 mi South 6.9 mph - N/A   Clear
8:15 AM 15.8 °F 5.1 °F 8.6 °F 73% 30.16 in 10.0 mi South 8.1 mph - N/A   Clear
8:35 AM 17.6 °F 6.4 °F 8.6 °F 68% 30.16 in 10.0 mi South 9.2 mph - N/A   Clear
8:55 AM 17.6 °F 5.7 °F 8.6 °F 68% 30.18 in 10.0 mi South 10.4 mph - N/A   Mostly Cloudy
9:15 AM 19.4 °F 5.5 °F 10.4 °F 68% 30.18 in 10.0 mi South 15.0 mph - N/A   Overcast
9:35 AM 21.2 °F 7.3 °F 10.4 °F 63% 30.18 in 10.0 mi South 16.1 mph - N/A   Overcast
9:55 AM 21.2 °F 8.9 °F 10.4 °F 63% 30.17 in 10.0 mi South 12.7 mph - N/A   Scattered Clouds
10:15 AM 21.2 °F 8.3 °F 10.4 °F 63% 30.19 in 10.0 mi South 13.8 mph - N/A   Mostly Cloudy
10:35 AM 24.8 °F 11.5 °F 12.2 °F 59% 30.18 in 10.0 mi South 17.3 mph - N/A   Overcast
10:55 AM 24.8 °F 14.0 °F 10.4 °F 54% 30.16 in 10.0 mi SSE 11.5 mph - N/A   Overcast
11:15 AM 26.6 °F 13.4 °F 10.4 °F 51% 30.16 in 10.0 mi SSE 18.4 mph 21.9 mph N/A   Overcast
11:35 AM 26.6 °F 13.1 °F 10.4 °F 51% 30.15 in 10.0 mi SSE 19.6 mph 23.0 mph N/A   Overcast
11:55 AM 26.6 °F 14.3 °F 10.4 °F 51% 30.15 in 10.0 mi South 16.1 mph - N/A   Overcast
12:15 PM 28.4 °F 15.1 °F 8.6 °F 43% 30.13 in 10.0 mi South 20.7 mph 24.2 mph N/A   Overcast
12:35 PM 28.4 °F 16.6 °F 8.6 °F 43% 30.12 in 10.0 mi South 16.1 mph - N/A   Overcast
12:55 PM 28.4 °F 15.4 °F 8.6 °F 43% 30.10 in 10.0 mi South 19.6 mph - N/A   Overcast
1:15 PM 28.4 °F 15.1 °F 8.6 °F 43% 30.08 in 10.0 mi SSE 20.7 mph - N/A   Overcast
1:35 PM 30.2 °F 17.8 °F 8.6 °F 40% 30.06 in 10.0 mi SSE 19.6 mph - N/A   Overcast
1:55 PM 30.2 °F 17.4 °F 8.6 °F 40% 30.05 in 10.0 mi SSE 20.7 mph - N/A   Overcast
2:15 PM 30.2 °F 18.1 °F 8.6 °F 40% 30.06 in 10.0 mi South 18.4 mph 21.9 mph N/A   Overcast
2:35 PM 30.2 °F 18.9 °F 8.6 °F 40% 30.05 in 10.0 mi SSE 16.1 mph - N/A   Overcast
2:55 PM 30.2 °F 18.5 °F 10.4 °F 44% 30.04 in 10.0 mi SSE 17.3 mph 20.7 mph N/A   Overcast
3:15 PM 30.2 °F 19.3 °F 10.4 °F 44% 30.05 in 10.0 mi SSE 15.0 mph - N/A   Overcast
3:35 PM 30.2 °F 19.3 °F 12.2 °F 47% 30.04 in 10.0 mi SSE 15.0 mph - N/A   Overcast
3:55 PM 30.2 °F 20.8 °F 14.0 °F 51% 30.04 in 10.0 mi SSE 11.5 mph - N/A   Overcast
4:15 PM 32.0 °F 23.0 °F 12.2 °F 44% 30.04 in 10.0 mi SSE 11.5 mph - N/A   Overcast
4:35 PM 32.0 °F 22.5 °F 14.0 °F 48% 30.03 in 10.0 mi SSE 12.7 mph 16.1 mph N/A   Overcast
4:55 PM 32.0 °F 23.0 °F 12.2 °F 44% 30.03 in 10.0 mi SSE 11.5 mph - N/A   Overcast
5:15 PM 32.0 °F 22.1 °F 12.2 °F 44% 30.03 in 10.0 mi SSE 13.8 mph - N/A   Overcast
5:35 PM 32.0 °F 22.5 °F 12.2 °F 44% 30.03 in 10.0 mi SSE 12.7 mph - N/A   Overcast
5:55 PM 32.0 °F 22.5 °F 12.2 °F 44% 30.03 in 10.0 mi SSE 12.7 mph - N/A   Overcast
6:15 PM 30.2 °F 20.8 °F 14.0 °F 51% 30.03 in 10.0 mi SSE 11.5 mph - N/A   Overcast
6:35 PM 30.2 °F 21.9 °F 14.0 °F 51% 30.03 in 10.0 mi SE 9.2 mph - N/A   Overcast
6:55 PM 30.2 °F 21.9 °F 14.0 °F 51% 30.03 in 10.0 mi SE 9.2 mph - N/A   Overcast
7:15 PM 30.2 °F 21.9 °F 14.0 °F 51% 30.03 in 10.0 mi SE 9.2 mph - N/A   Overcast
7:35 PM 30.2 °F 23.4 °F 15.8 °F 55% 30.03 in 10.0 mi SE 6.9 mph - N/A   Overcast
7:55 PM 30.2 °F 23.4 °F 15.8 °F 55% 30.04 in 10.0 mi SE 6.9 mph - N/A   Overcast
8:15 PM 30.2 °F 22.6 °F 15.8 °F 55% 30.05 in 10.0 mi SE 8.1 mph - N/A   Overcast
8:35 PM 30.2 °F 21.3 °F 15.8 °F 55% 30.04 in 10.0 mi SE 10.4 mph - N/A   Overcast
8:55 PM 30.2 °F 22.6 °F 17.6 °F 60% 30.04 in 10.0 mi SE 8.1 mph - N/A   Overcast
9:15 PM 32.0 °F 25.6 °F 17.6 °F 55% 30.04 in 10.0 mi SE 6.9 mph - N/A   Overcast
9:35 PM 32.0 °F 25.6 °F 17.6 °F 55% 30.05 in 10.0 mi SE 6.9 mph - N/A   Overcast
9:55 PM 32.0 °F 28.7 °F 17.6 °F 55% 30.05 in 10.0 mi ESE 3.5 mph - N/A   Overcast
10:15 PM 30.2 °F 24.3 °F 17.6 °F 60% 30.05 in 10.0 mi ESE 5.8 mph - N/A   Overcast
10:35 PM 32.0 °F 25.6 °F 19.4 °F 60% 30.05 in 10.0 mi SE 6.9 mph - N/A   Overcast
10:55 PM 30.2 °F 23.4 °F 21.2 °F 69% 30.05 in 10.0 mi SE 6.9 mph - N/A   Overcast
11:15 PM 32.0 °F 28.7 °F 21.2 °F 64% 30.05 in 10.0 mi SSE 3.5 mph - N/A   Overcast
11:35 PM 30.2 °F 24.3 °F 21.2 °F 69% 30.05 in 10.0 mi SE 5.8 mph - N/A   Overcast
11:55 PM 30.2 °F 23.4 °F 23.0 °F 75% 30.05 in 10.0 mi SE 6.9 mph - N/A   Overcast